Waarnemingen

Advertentie
Mijn weer
A12-CPP, Nederland (6205): temperatuur & dauwpunt: 17.10.2017 02:00:00 - 23.10.2017 02:00:00 (CEST)A12-CPP, Nederland (6205): windsnelheid & windstoten: 17.10.2017 02:00:00 - 23.10.2017 02:00:00 (CEST)A12-CPP, Nederland (6205): windrichting: 17.10.2017 02:00:00 - 23.10.2017 02:00:00 (CEST)A12-CPP, Nederland (6205): luchtdruk: 17.10.2017 02:00:00 - 23.10.2017 02:00:00 (CEST)A12-CPP, Nederland (6205): zicht: 17.10.2017 02:00:00 - 23.10.2017 02:00:00 (CEST)
Datum & Tijd tt [°C] td [°C] ff [km/u] ff [kn] fx [km/u] fx [kn] dd ppp [hPa] vv [km]
23.10.2017 02:00:00 12,9 11,9 28 15 29 16 NO 1004,3 10
23.10.2017 01:00:00 12,6 12,4 9 5 25 14 WZW 1003,1 10
23.10.2017 00:00:00 12,5 11,9 31 17 36 19 WZW 1003,0 3,8
22.10.2017 23:00:00 12,5 11,7 35 19 36 19 ZW 1003,3 4,1
22.10.2017 22:00:00 12,3 11,5 35 19 40 21 WZW 1003,3 5
22.10.2017 21:00:00 12,7 11,0 39 21 40 21 WZW 1003,3 4,0
22.10.2017 20:00:00 12,8 11,3 37 20 40 21 WZW 1003,3 9
22.10.2017 19:00:00 13,0 10,4 37 20 36 19 ZW 1002,6 10
22.10.2017 18:00:00 12,9 10,4 37 20 36 19 WZW 1002,2 10
22.10.2017 17:00:00 12,0 11,1 29 16 36 19 WZW 1001,9 7
22.10.2017 16:00:00 12,3 10,7 35 19 36 19 ZW 1001,3 10
22.10.2017 15:00:00 12,4 10,5 34 18 40 21 ZW 1000,8 10
22.10.2017 14:00:00 12,7 10,1 39 21 40 21 ZZW 1000,5 10
22.10.2017 13:00:00 12,6 9,4 34 18 40 21 ZZW 1000,1 10
22.10.2017 12:00:00 12,0 9,6 37 20 43 23 ZZW 999,9 10
22.10.2017 11:00:00 11,8 10,0 34 18 47 25 ZZW 999,6 10
22.10.2017 10:00:00 12,2 8,9 41 22 47 25 ZZW 999,1 10
22.10.2017 09:00:00 12,0 8,9 46 25 50 27 ZZW 998,5 10
22.10.2017 08:00:00 13,0 8,4 48 26 47 25 ZZW 997,8 10
22.10.2017 07:00:00 13,0 9,8 48 26 54 29 ZZW 997,2 10
22.10.2017 06:00:00 13,5 10,7 48 26 54 29 ZZW 996,9 10
22.10.2017 05:00:00 12,4 11,1 42 23 50 27 - 996,6 3,1
22.10.2017 04:00:00 12,7 11,0 46 25 50 27 Z 996,7 3,3
22.10.2017 03:00:00 12,5 10,8 48 26 50 27 Z 997,0 3,0
22.10.2017 02:00:00 13,1 10,1 46 25 50 27 Z 997,4 10
22.10.2017 01:00:00 13,8 9,5 48 26 50 27 Z 997,8 10
22.10.2017 00:00:00 14,1 9,6 48 26 47 25 Z 998,3 10
21.10.2017 23:00:00 14,2 9,7 48 26 50 27 Z 998,6 9
21.10.2017 22:00:00 14,2 10,3 46 25 50 27 Z 999,0 9
21.10.2017 21:00:00 14,1 10,5 48 26 47 25 Z 999,4 9
21.10.2017 20:00:00 14,3 10,7 48 26 47 25 Z 999,7 9
21.10.2017 19:00:00 14,4 10,3 48 26 47 25 Z 1000,0 9
21.10.2017 18:00:00 14,4 10,9 44 24 47 25 Z 1000,5 9
21.10.2017 17:00:00 14,4 10,9 44 24 47 25 Z 1000,7 9
21.10.2017 16:00:00 14,4 10,8 42 23 43 23 Z 1000,8 10
21.10.2017 15:00:00 14,4 10,9 37 20 40 21 Z 1000,8 10
21.10.2017 14:00:00 14,3 11,9 35 19 40 21 Z 1000,7 10
21.10.2017 13:00:00 14,0 12,6 52 28 61 33 ZZO 1000,8 10
21.10.2017 12:00:00 12,9 12,1 63 34 68 37 ZZO 1000,8 2,8
21.10.2017 11:00:00 13,1 11,8 67 36 72 39 ZZO 1001,2 4,0
21.10.2017 10:00:00 13,8 12,0 63 34 65 35 ZZO 1002,0 2,8
21.10.2017 09:00:00 13,9 10,4 57 31 58 31 ZO 1002,3 10
21.10.2017 08:00:00 13,5 9,3 48 26 - - ZZO 1003,0 10
21.10.2017 07:00:00 13,3 9,4 41 22 40 21 ZZO 1003,8 10
21.10.2017 06:00:00 13,2 9,9 31 17 32 18 Z 1004,4 10
21.10.2017 05:00:00 13,3 10,9 26 14 - - Z 1004,5 10
21.10.2017 04:00:00 13,2 11,1 18 10 25 14 Z 1004,9 10
21.10.2017 03:00:00 13,2 10,3 18 10 29 16 ZW 1004,9 10
21.10.2017 02:00:00 13,4 12,6 11 6 - - Z 1005,2 10
21.10.2017 01:00:00 13,6 12,5 8 4 22 12 - 1005,3 10
21.10.2017 00:00:00 13,5 12,4 22 12 25 14 O 1005,0 10
20.10.2017 23:00:00 13,4 12,0 16 9 - - O 1004,9 10
20.10.2017 22:00:00 13,5 12,3 22 12 22 12 O 1004,9 10
20.10.2017 21:00:00 13,7 12,3 18 10 22 12 O 1004,5 10
20.10.2017 20:00:00 13,7 12,2 9 5 22 12 O 1004,0 10
20.10.2017 19:00:00 13,6 12,1 9 5 18 10 O 1003,8 10
20.10.2017 18:00:00 13,9 12,1 9 5 25 14 OZO 1003,0 10
20.10.2017 17:00:00 13,8 12,1 26 14 29 16 ZZO 1002,8 10
20.10.2017 16:00:00 13,8 11,3 24 13 29 16 ZZO 1002,4 10
20.10.2017 15:00:00 14,2 12,0 34 18 32 18 ZZO 1002,2 10
20.10.2017 14:00:00 13,9 12,0 26 14 29 16 ZZO 1002,1 10
20.10.2017 13:00:00 14,0 11,6 28 15 29 16 ZZO 1002,1 10
20.10.2017 12:00:00 13,9 11,4 26 14 29 16 Z 1001,8 10
20.10.2017 11:00:00 14,3 12,7 44 24 43 23 ZZO 1001,5 10
20.10.2017 10:00:00 15,1 13,2 41 22 40 21 ZZO 1001,3 10
20.10.2017 09:00:00 15,3 13,6 39 21 43 23 ZZO 1001,1 9
20.10.2017 08:00:00 15,3 13,5 41 22 40 21 ZZO 1000,9 10
20.10.2017 07:00:00 15,4 13,7 42 23 43 23 ZZO 1001,1 5
20.10.2017 06:00:00 15,3 13,7 44 24 43 23 ZZO 1001,2 4,8
20.10.2017 05:00:00 15,2 13,7 42 23 40 21 ZZO 1001,6 4,4
20.10.2017 04:00:00 15,5 13,7 41 22 40 21 ZZO 1002,2 4,5
20.10.2017 03:00:00 15,6 13,7 41 22 40 21 ZZO 1003,0 4,1
20.10.2017 02:00:00 15,7 13,5 48 26 47 25 ZZO 1003,1 4,2
20.10.2017 01:00:00 15,7 13,6 52 28 54 29 ZZO 1003,4 3,5
20.10.2017 00:00:00 15,6 13,8 54 29 54 29 ZO 1003,7 3,2
19.10.2017 23:00:00 15,5 14,0 52 28 54 29 ZO 1004,2 2,7
19.10.2017 22:00:00 15,0 13,8 52 28 50 27 ZZO 1005,0 2,8
19.10.2017 21:00:00 15,0 13,6 42 23 47 25 ZO 1005,1 5
19.10.2017 20:00:00 14,9 13,7 48 26 47 25 ZO 1005,5 4,7
19.10.2017 19:00:00 14,6 13,8 37 20 40 21 ZO 1006,0 4,0
19.10.2017 18:00:00 14,6 13,9 41 22 40 21 ZO 1006,3 1,7
19.10.2017 17:00:00 14,5 14,0 37 20 36 19 ZO 1006,8 4,0
19.10.2017 16:00:00 13,8 13,6 34 18 32 18 ZZO 1007,6 -
19.10.2017 15:00:00 14,4 13,9 34 18 32 18 ZZO 1008,1 -
19.10.2017 14:00:00 14,5 13,8 34 18 32 18 ZZO 1008,7 -
19.10.2017 13:00:00 14,3 13,5 35 19 32 18 ZZO 1009,3 -
19.10.2017 12:00:00 14,4 13,6 35 19 36 19 ZZO 1009,3 -
19.10.2017 11:00:00 14,3 13,4 34 18 36 19 ZZO 1009,4 -
19.10.2017 10:00:00 14,3 13,2 37 20 43 23 ZO 1009,4 -
19.10.2017 09:00:00 14,2 13,1 39 21 43 23 ZO 1009,3 10
19.10.2017 08:00:00 13,9 12,3 28 15 43 23 ZO 1009,5 10
19.10.2017 07:00:00 13,8 12,0 31 17 40 21 OZO 1009,9 10
19.10.2017 06:00:00 13,5 11,7 31 17 40 21 OZO 1010,5 10
19.10.2017 05:00:00 13,3 11,0 29 16 32 18 O 1011,3 10
19.10.2017 04:00:00 13,2 10,2 13 7 18 10 - 1011,7 10
19.10.2017 03:00:00 13,1 10,1 5 3 25 14 OZO 1012,5 10
19.10.2017 02:00:00 12,8 11,2 29 16 29 16 O 1012,7 10
19.10.2017 01:00:00 12,6 10,9 18 10 22 12 O 1013,0 10
19.10.2017 00:00:00 12,9 10,2 15 8 22 12 O 1013,1 10
18.10.2017 23:00:00 12,6 9,8 9 5 22 12 - 1013,6 10
18.10.2017 22:00:00 12,7 9,8 16 9 22 12 O 1013,7 10
18.10.2017 21:00:00 12,5 9,1 15 8 18 10 O 1013,9 10
18.10.2017 20:00:00 12,3 9,3 9 5 11 6 O 1013,9 10
18.10.2017 19:00:00 12,0 9,0 11 6 14 8 O 1013,9 10
18.10.2017 18:00:00 12,0 8,4 9 5 14 8 O 1013,7 10
18.10.2017 17:00:00 12,0 8,2 9 5 11 6 NNO 1013,8 10
18.10.2017 16:00:00 12,0 8,9 5 3 11 6 - 1014,0 10
18.10.2017 15:00:00 12,0 8,9 5 3 7 4 - 1014,2 10
18.10.2017 14:00:00 12,2 9,4 4 2 7 4 - 1014,4 10
18.10.2017 13:00:00 11,8 9,3 5 3 18 10 NW 1014,7 10
18.10.2017 12:00:00 11,8 9,4 5 3 11 6 WNW 1014,5 10
18.10.2017 11:00:00 11,9 9,0 8 4 11 6 NW 1014,4 10
18.10.2017 10:00:00 11,4 9,0 15 8 14 8 NW 1014,5 10
18.10.2017 09:00:00 12,0 9,3 13 7 18 10 NNW 1013,9 10
18.10.2017 08:00:00 12,3 8,3 13 7 14 8 NW 1013,7 10
18.10.2017 07:00:00 12,3 8,2 15 8 22 12 WNW 1013,8 10
18.10.2017 06:00:00 12,1 9,0 21 11 25 14 NW 1013,9 10
18.10.2017 05:00:00 11,7 9,6 28 15 29 16 NW 1013,7 -
18.10.2017 04:00:00 12,0 9,6 28 15 32 18 W 1013,9 -
18.10.2017 03:00:00 12,0 9,1 29 16 36 19 WNW 1013,8 10
18.10.2017 02:00:00 12,1 10,5 34 18 40 21 WNW 1013,5 -
18.10.2017 01:00:00 12,7 10,9 39 21 47 25 W 1013,3 -
18.10.2017 00:00:00 13,1 10,0 50 27 50 27 W 1012,9 -
17.10.2017 23:00:00 13,3 9,7 52 28 54 29 W 1012,7 -
17.10.2017 22:00:00 13,5 9,5 55 30 61 33 WZW 1012,3 -
17.10.2017 21:00:00 13,5 9,1 65 35 65 35 WZW 1011,9 -
17.10.2017 20:00:00 13,6 8,7 57 31 68 37 W 1011,8 10
17.10.2017 19:00:00 13,6 8,0 70 38 72 39 WZW 1011,2 10
17.10.2017 18:00:00 13,6 8,4 72 39 76 41 WZW 1010,9 10
17.10.2017 17:00:00 13,6 8,2 72 39 76 41 ZW 1010,3 10
17.10.2017 16:00:00 13,3 8,8 72 39 76 41 ZW 1010,3 10
17.10.2017 15:00:00 13,3 8,2 72 39 79 43 ZW 1010,4 10
17.10.2017 14:00:00 13,3 8,5 78 42 83 45 ZW 1010,6 10
17.10.2017 13:00:00 13,4 8,7 74 40 79 43 ZW 1010,5 10
17.10.2017 12:00:00 13,5 8,9 78 42 83 45 ZW 1010,1 10
17.10.2017 11:00:00 13,7 8,7 78 42 79 43 ZZW 1010,1 10
17.10.2017 10:00:00 13,7 9,0 74 40 76 41 ZW 1010,3 10
17.10.2017 09:00:00 13,9 8,8 74 40 79 43 ZZW 1009,8 10
17.10.2017 08:00:00 13,9 9,1 76 41 79 43 ZZW 1009,3 10
17.10.2017 07:00:00 14,0 9,1 72 39 76 41 ZZW 1009,6 10
17.10.2017 06:00:00 14,2 9,0 76 41 79 43 ZZW 1009,3 10
17.10.2017 05:00:00 14,3 9,1 74 40 76 41 ZZW 1009,7 10
17.10.2017 04:00:00 14,4 9,1 80 43 79 43 ZZW 1009,9 10
17.10.2017 03:00:00 14,6 9,1 74 40 76 41 ZZW 1010,1 10
17.10.2017 02:00:00 14,9 9,6 72 39 76 41 ZZW 1009,9 10

tt = temperatuur
td = dauwpunt
ff = windsnelheid
fx = windstoten
dd = windrichting
ppp = luchtdruk
vv = zicht

Weerstations in de omgeving